| time (UTC) | temp F | wind direction | speed MPH | gust MPH | rain 1hr in | rain 24hr in | rain mn in | humidity % | barometer mb |
| 20260904092056 | 78 | 117 | 0.0 | 0.0 | 0.00 | 0.00 | 0.00 | ||
| 20260904073511 | 80 | 117 | 0.0 | 0.0 | 0.00 | 0.00 | 0.00 | ||
| 20260904064113 | 81 | 117 | 0.0 | 0.0 | 0.00 | 0.00 | 0.00 | ||
| 20260904063452 | 81 | 117 | 0.0 | 0.0 | 0.00 | 0.00 | 0.00 | ||
| 20260904062946 | 81 | 117 | 0.0 | 0.0 | 0.00 | 0.00 | 0.00 | ||
| 20260904055933 | 81 | 117 | 0.0 | 0.0 | 0.00 | 0.00 | 0.00 | ||
| 20260904022803 | 89 | 118 | 0.0 | 0.0 | 0.00 | 0.00 | 0.00 | ||
| 20260904015749 | 90 | 118 | 0.0 | 0.0 | 0.00 | 0.00 | 0.00 | ||
| 20260904015250 | 90 | 118 | 0.0 | 0.0 | 0.00 | 0.00 | 0.00 | ||
| 20260904014744 | 90 | 118 | 0.0 | 0.0 | 0.00 | 0.00 | 0.00 | ||
| 20260904014243 | 91 | 118 | 0.0 | 0.0 | 0.00 | 0.00 | 0.00 | ||
| 20260904013741 | 91 | 118 | 0.0 | 0.0 | 0.00 | 0.00 | 0.00 | ||
| 20260904013238 | 92 | 118 | 0.0 | 0.0 | 0.00 | 0.00 | 0.00 | ||
| 20260904012736 | 92 | 118 | 0.0 | 0.0 | 0.00 | 0.00 | 0.00 | ||
| 20260904012236 | 92 | 118 | 0.0 | 0.0 | 0.00 | 0.00 | 0.00 | ||
| 20260904011731 | 93 | 118 | 0.0 | 0.0 | 0.00 | 0.00 | 0.00 | ||
| 20260904011230 | 93 | 118 | 0.0 | 0.0 | 0.00 | 0.00 | 0.00 | ||
| 20260904010729 | 93 | 118 | 0.0 | 0.0 | 0.00 | 0.00 | 0.00 | ||
| 20260904010223 | 93 | 118 | 0.0 | 0.0 | 0.00 | 0.00 | 0.00 | ||
| 20260904005722 | 93 | 118 | 0.0 | 0.0 | 0.00 | 0.00 | 0.00 | ||
| 20260904004215 | 94 | 118 | 0.0 | 0.0 | 0.00 | 0.00 | 0.00 | ||
| 20260904003714 | 94 | 118 | 0.0 | 0.0 | 0.00 | 0.00 | 0.00 | ||
| 20260904002207 | 95 | 118 | 0.0 | 0.0 | 0.00 | 0.00 | 0.00 | ||
| 20260904001201 | 95 | 118 | 0.0 | 0.0 | 0.00 | 0.00 | 0.00 | ||
| 20260904000700 | 96 | 118 | 0.0 | 0.0 | 0.00 | 0.00 | 0.00 | ||
| 20260904000155 | 96 | 118 | 0.0 | 0.0 | 0.00 | 0.00 | 0.00 | ||
| 20260903235654 | 96 | 118 | 0.0 | 0.0 | 0.00 | 0.00 | 0.00 | ||
| 20260903235153 | 96 | 118 | 0.0 | 0.0 | 0.00 | 0.00 | 0.00 | ||
| 20260903234646 | 97 | 118 | 1.0 | 0.0 | 0.00 | 0.00 | 0.00 | ||
| 20260903234145 | 96 | 69 | 0.0 | 0.0 | 0.00 | 0.00 | 0.00 | ||
| 20260903233139 | 97 | 86 | 0.0 | 0.0 | 0.00 | 0.00 | 0.00 | ||
| 20260903232638 | 97 | 86 | 0.0 | 0.0 | 0.00 | 0.00 | 0.00 | ||
| 20260903232137 | 97 | 86 | 0.0 | 0.0 | 0.00 | 0.00 | 0.00 | ||
| 20260903231630 | 99 | 86 | 0.0 | 0.0 | 0.00 | 0.00 | 0.00 | ||
| 20260903224613 | 101 | 86 | 0.0 | 0.0 | 0.00 | 0.00 | 0.00 | ||
| 20260903224112 | 102 | 86 | 0.0 | 0.0 | 0.00 | 0.00 | 0.00 | ||
| 20260903223105 | 103 | 86 | 0.0 | 0.0 | 0.00 | 0.00 | 0.00 | ||
| 20260903222605 | 103 | 86 | 0.0 | 0.0 | 0.00 | 0.00 | 0.00 | ||
| 20260903221557 | 102 | 86 | 0.0 | 0.0 | 0.00 | 0.00 | 0.00 | ||
| 20260903221057 | 103 | 86 | 0.0 | 0.0 | 0.00 | 0.00 | 0.00 | ||
| 20260903220555 | 104 | 86 | 0.0 | 0.0 | 0.00 | 0.00 | 0.00 | ||
| 20260903220049 | 105 | 86 | 0.0 | 0.0 | 0.00 | 0.00 | 0.00 | ||
| 20260903215548 | 106 | 86 | 0.0 | 0.0 | 0.00 | 0.00 | 0.00 | ||
| 20260903214041 | 107 | 86 | 0.0 | 0.0 | 0.00 | 0.00 | 0.00 | ||
| 20260903213539 | 110 | 86 | 0.0 | 0.0 | 0.00 | 0.00 | 0.00 | ||
| 20260903213033 | 110 | 86 | 0.0 | 0.0 | 0.00 | 0.00 | 0.00 | ||
| 20260903210524 | 105 | 86 | 0.0 | 0.0 | 0.00 | 0.00 | 0.00 | ||
| 20260903205016 | 110 | 86 | 0.0 | 0.0 | 0.00 | 0.00 | 0.00 | ||
| 20260903204509 | 109 | 86 | 0.0 | 0.0 | 0.00 | 0.00 | 0.00 | ||
| 20260903204006 | 106 | 86 | 0.0 | 0.0 | 0.00 | 0.00 | 0.00 | ||
| 20260903203506 | 105 | 86 | 0.0 | 0.0 | 0.00 | 0.00 | 0.00 | ||
| 20260903203000 | 106 | 86 | 0.0 | 0.0 | 0.00 | 0.00 | 0.00 | ||
| 20260903202459 | 106 | 86 | 0.0 | 0.0 | 0.00 | 0.00 | 0.00 | ||
| 20260903201958 | 106 | 86 | 0.0 | 0.0 | 0.00 | 0.00 | 0.00 | ||
| 20260903201451 | 103 | 86 | 0.0 | 0.0 | 0.00 | 0.00 | 0.00 | ||
| 20260903200949 | 105 | 86 | 0.0 | 0.0 | 0.00 | 0.00 | 0.00 | ||
| 20260903200449 | 109 | 86 | 0.0 | 0.0 | 0.00 | 0.00 | 0.00 | ||
| 20260903195942 | 109 | 86 | 0.0 | 0.0 | 0.00 | 0.00 | 0.00 | ||
| 20260903195439 | 109 | 86 | 0.0 | 0.0 | 0.00 | 0.00 | 0.00 | ||
| 20260903194940 | 110 | 86 | 0.0 | 0.0 | 0.00 | 0.00 | 0.00 | ||
| 20260903193932 | 109 | 86 | 0.0 | 0.0 | 0.00 | 0.00 | 0.00 | ||
| 20260903193430 | 109 | 86 | 0.0 | 0.0 | 0.00 | 0.00 | 0.00 | ||
| 20260903192923 | 112 | 86 | 0.0 | 0.0 | 0.00 | 0.00 | 0.00 | ||
| 20260903192423 | 109 | 86 | 0.0 | 0.0 | 0.00 | 0.00 | 0.00 | ||
| 20260903191921 | 105 | 86 | 0.0 | 0.0 | 0.00 | 0.00 | 0.00 | ||
| 20260903191413 | 109 | 86 | 0.0 | 0.0 | 0.00 | 0.00 | 0.00 | ||
| 20260903190912 | 108 | 86 | 0.0 | 0.0 | 0.00 | 0.00 | 0.00 | ||
| 20260903185904 | 109 | 86 | 0.0 | 0.0 | 0.00 | 0.00 | 0.00 | ||
| 20260903185404 | 112 | 86 | 0.0 | 0.0 | 0.00 | 0.00 | 0.00 | ||
| 20260903184903 | 109 | 86 | 0.0 | 0.0 | 0.00 | 0.00 | 0.00 | ||
| 20260903184355 | 111 | 86 | 0.0 | 0.0 | 0.00 | 0.00 | 0.00 | ||
| 20260903183855 | 109 | 86 | 0.0 | 0.0 | 0.00 | 0.00 | 0.00 | ||
| 20260903182848 | 105 | 249 | 0.0 | 0.0 | 0.00 | 0.00 | 0.00 | ||
| 20260903182347 | 109 | 249 | 0.0 | 0.0 | 0.00 | 0.00 | 0.00 | ||
| 20260903181340 | 111 | 249 | 0.0 | 0.0 | 0.00 | 0.00 | 0.00 | ||
| 20260903174324 | 108 | 249 | 0.0 | 0.0 | 0.00 | 0.00 | 0.00 | ||
| 20260903161241 | 100 | 224 | 0.0 | 0.0 | 0.00 | 0.00 | 0.00 | ||
| 20260903155233 | 99 | 224 | 0.0 | 0.0 | 0.00 | 0.00 | 0.00 | ||
| 20260903153226 | 96 | 224 | 0.0 | 0.0 | 0.00 | 0.00 | 0.00 | ||
| 20260903152222 | 96 | 224 | 0.0 | 0.0 | 0.00 | 0.00 | 0.00 | ||
| 20260903131121 | 85 | 101 | 0.0 | 0.0 | 0.00 | 0.00 | 0.00 |